Regional Weather Roundup
Issued by NWS

Home | Current Version | Previous Version | Graphics & Text | Print | Product List | Glossary Off
Versions: 1 2 3 4 5 6 7 8 9 10 11 12 13 14 15 16 17 18 19 20 21 22 23 24 25 26 27 28 29 30 31 32 33 34 35 36 37 38 39 40 41 42 43 44 45 46 47 48 49 50

342
ASUS43 KTOP 110308
RWRKS

WEATHER ROUNDUP FOR KANSAS
NATIONAL WEATHER SERVICE GOODLAND KS
900 PM CST WED FEB 10 2016

NOTE:  "FAIR" INDICATES FEW OR NO CLOUDS BELOW 12,000 FEET WITH NO
SIGNIFICANT WEATHER AND/OR OBSTRUCTIONS TO VISIBILITY.

KSZ001>006-013>018-027>032-041>047-110400-
NORTHWEST KANSAS

CITY           SKY/WX    TMP DP  RH WIND       PRES   REMARKS
GOODLAND       CLOUDY    43  28  55 NW10      30.09R
HAYS           CLOUDY    45  25  45 NW9       30.01S
HILL CITY      CLOUDY    45  31  58 NW8       30.02R
RUSSELL        CLEAR     43  30  60 NW10      29.99R
$$

KSZ061>065-074>080-084>089-110400-
SOUTHWEST KANSAS

CITY           SKY/WX    TMP DP  RH WIND       PRES   REMARKS
DODGE CITY     CLOUDY    42  22  44 NW8       30.03R
ELKHART          N/A     54  10  17 N5          N/A
GARDEN CITY    CLEAR     46  24  42 N13       30.04R
GREAT BEND     CLEAR     39  25  56 NW7       30.00R
LIBERAL        CLEAR     46  12  25 NE5       30.05R
PRATT          CLEAR     40  25  54 NW9       30.00R
$$

KSZ066>073-081>083-090>101-110400-
SOUTHEAST KANSAS

CITY           SKY/WX    TMP DP  RH WIND       PRES   REMARKS
CHANUTE        CLEAR     36  27  69 CALM      29.94R
COFFEYVILLE    CLEAR     45  28  51 E3        29.92S
HUTCHINSON     CLEAR     46  28  49 N9        29.96R
MEDICINE LODGE   N/A     50  26  39 N8        29.98R
NEWTON         CLEAR     45  27  49 N10       29.98R
PARSONS        CLEAR     36  26  67 CALM      29.93S
WICHITA INTL   PTCLDY    48  29  47 NW9       29.96R
WICHITA JABRA  CLEAR     48  30  49 NW8       29.96R
WICHITA MCCONL CLEAR     51  31  46 N7        29.96R
WINFIELD       CLEAR     45  28  51 NW9       29.95R
$$

KSZ007>012-019>026-033>040-048>060-102>105-110400-
NORTHEAST KANSAS

CITY           SKY/WX    TMP DP  RH WIND       PRES   REMARKS
CONCORDIA      CLOUDY    41  30  65 CALM      29.99R
EMPORIA        CLEAR     44  29  55 NW7       29.95R
LAWRENCE       CLEAR     39  22  50 E9        29.99R
MANHATTAN      CLEAR     42  31  64 N6        29.99R
MARYSVILLE     CLOUDY    34  30  86 N8        30.01R
OLATHE IND     CLEAR     37  22  54 E8        29.98R
OLATHE EXE     CLEAR     36  20  52 E8        29.98R
SALINA         CLOUDY    40  28  62 CALM      29.99R
TOPEKA BILLARD CLEAR     40  23  50 NE6       29.99R
TOPEKA FORBES  CLEAR     43  24  47 E9        29.97R
$$




USA.gov is the U.S. government's official web portal to all federal, state and local government web resources and services.